Location: Unspecified
(33.9239°N, 118.0544°W)
Time: 22:54:09
(UTC-07:00)

Resurs 1-4 Rocket - Visible Passes

Search period start: 22 October 2014 00:00
Search period end: 01 November 2014 00:00
Orbit: 801 x 814 km, 98.4° (Epoch: 22 October)

Date Brightness Start Highest point End Pass type
(mag) Time Alt. Az. Time Alt. Az. Time Alt. Az.
22 Oct 4.7 03:35:57 10° ENE 03:38:52 15° E 03:38:52 15° E visible
22 Oct 2.1 05:13:53 10° N 05:19:03 54° WNW 05:19:56 48° WSW visible
23 Oct 2.0 04:49:22 10° NNE 04:54:41 87° ESE 04:55:01 79° S visible
24 Oct 2.9 04:25:07 10° NNE 04:30:05 49° E 04:30:05 49° E visible
24 Oct 3.5 06:06:16 10° NNW 06:09:39 18° WNW 06:11:09 16° W visible
25 Oct 3.9 04:01:13 10° NE 04:05:08 28° E 04:05:08 28° E visible
25 Oct 2.8 05:40:58 10° N 05:45:29 29° WNW 05:46:13 28° W visible
26 Oct 4.7 03:37:57 10° NE 03:40:12 15° E 03:40:12 15° E visible
26 Oct 2.2 05:16:07 10° N 05:21:13 50° WNW 05:21:16 50° WNW visible
27 Oct 2.1 04:51:33 10° NNE 04:56:20 73° N 04:56:20 73° N visible
28 Oct 3.0 04:27:17 10° NNE 04:31:23 45° ENE 04:31:23 45° ENE visible
28 Oct 3.5 06:08:37 10° NNW 06:11:49 17° WNW 06:12:27 16° WNW visible
29 Oct 4.0 04:03:20 10° NE 04:06:25 26° ENE 04:06:25 26° ENE visible
29 Oct 2.9 05:43:14 10° NNW 05:47:30 28° WNW 05:47:30 28° WNW visible
30 Oct 4.8 03:39:58 10° NE 03:41:28 15° ENE 03:41:28 15° ENE visible
30 Oct 2.5 05:18:20 10° N 05:22:33 43° NW 05:22:33 43° NW visible
31 Oct 2.6 04:53:45 10° N 04:57:35 49° N 04:57:35 49° N visible
